Location: Bettgenhausen
(50.6463°N, 7.5681°E)
Time: 17:36:58
(UTC+00:00)

Cosmos 1602 - Pass Details

Date: 27 February 2020
Orbit: 514 x 535 km, 82.5° (Epoch: 28 March)

Event Time Altitude Azimuth Distance (km) Brightness Sun altitude
Rises 18:59:44 0° 198° (SSW) 2,651 7.4 -18.6°
Reaches altitude 10° 19:01:53 10° 202° (SSW) 1,764 6.5 -19.0°
Maximum altitude 19:05:43 59° 283° (WNW) 610 4.3 -19.6°
Drops below altitude 10° 19:09:33 10° 3° (N) 1,766 6.5 -20.2°
Sets 19:11:43 0° 8° (N) 2,656 7.4 -20.5°
